This is the latest recevied weather packets stored in our database for station/object W4NRG-1. If no packets are shown the sender has not sent any weather packets the latest 10 day(s).
| Time | Temp. | Humidity | Pressure | Rain* | Wind** | Luminosity | Snow |
|---|---|---|---|---|---|---|---|
| 1778105263 | 21.67° C | 76% | 1009.9 hPa | 0 mm | - | - | - |
| 1778104958 | 21.67° C | 75% | 1009.8 hPa | 0 mm | - | - | - |
| 1778103745 | 21.11° C | 76% | 1009.9 hPa | 0 mm | - | - | - |
| 1778102232 | 21.11° C | 76% | 1010 hPa | 0 mm | - | - | - |
| 1778099198 | 20° C | 78% | 1009.9 hPa | 0 mm | - | - | - |
| 1778096165 | 20° C | 79% | 1010.4 hPa | 0 mm | - | - | - |
| 1778095862 | 20.56° C | 78% | 1010.5 hPa | 0 mm | - | - | - |
| 1778095559 | 20.56° C | 79% | 1010.3 hPa | 0 mm | - | - | - |
| 1778095255 | 20° C | 78% | 1010.4 hPa | 0 mm | - | - | - |
| 1778094951 | 20.56° C | 78% | 1010.7 hPa | 0 mm | - | - | - |
| 1778094345 | 20.56° C | 78% | 1010.7 hPa | 0 mm | - | - | - |
| 1778092525 | 20° C | 78% | 1011.1 hPa | 0 mm | - | - | - |
| 1778092223 | 20° C | 78% | 1011.4 hPa | 0 mm | - | - | - |
| 1778091617 | 20° C | 80% | 1011.1 hPa | 0 mm | - | - | - |
| 1778091315 | 20° C | 80% | 1011.2 hPa | 0 mm | - | - | - |
| 1778091012 | 20° C | 80% | 1011.2 hPa | 0 mm | - | - | - |
| 1778090708 | 20° C | 81% | 1011.2 hPa | 0 mm | - | - | - |
| 1778087980 | 18.33° C | 86% | 1011.7 hPa | 0 mm | - | - | - |
| 1778087678 | 18.33° C | 88% | 1011.6 hPa | 0 mm | - | - | - |
| 1778086469 | 17.78° C | 89% | 1011.9 hPa | 0 mm | - | - | - |
| 1778085253 | 17.22° C | 90% | 1012 hPa | 0 mm | - | - | - |
| 1778084949 | 17.22° C | 91% | 1011.7 hPa | 0 mm | - | - | - |
| 1778084344 | 17.22° C | 91% | 1012 hPa | 1.27 mm | - | - | - |
| 1778084042 | 17.22° C | 90% | 1012.1 hPa | 1.27 mm | - | - | - |
| 1778083739 | 16.67° C | 90% | 1012.4 hPa | 1.78 mm | - | - | - |
* Rain latest hour (hover to see other rain measurements)
** Current wind speed in m/s (hover to see current wind gust speed)